contact:dominique.lefevre@mio.osupytheas.fr, maurice.libes@osupytheas.fr, didier.mallarino@osupytheas.fr
Project:EMSO http://www.emso-fr.org/EMSO-France
Depth: 2436.0 m
Title:EMSO Ligure Ouest : Data MII capteur MICROCAT
DateTime_Computer,Latitude,Longitude,Temperature,Conductivity,Pressure,DateTime_Instrument
DateTime_Computer,Latitude,Longitude,degC,S m-1,dbar,DateTime_Instrument
2023-03-15T00:00:13Z,42.805,6.029,13.3033,4.60115,2470.693,2023-3-15T02:02:53Z
2023-03-15T00:03:16Z,42.805,6.029,13.3032,4.60095,2470.717,2023-3-15T02:05:56Z
2023-03-15T00:06:19Z,42.805,6.029,13.3031,4.60095,2470.693,2023-3-15T02:08:59Z
2023-03-15T00:09:22Z,42.805,6.029,13.3028,4.60094,2470.73,2023-3-15T02:12:02Z
2023-03-15T00:12:26Z,42.805,6.029,13.3028,4.60097,2470.693,2023-3-15T02:15:05Z
2023-03-15T00:15:29Z,42.805,6.029,13.3026,4.60112,2470.74,2023-3-15T02:18:08Z
2023-03-15T00:18:32Z,42.805,6.029,13.3030,4.60094,2470.693,2023-3-15T02:21:11Z
2023-03-15T00:21:35Z,42.805,6.029,13.3029,4.60106,2470.717,2023-3-15T02:24:14Z
2023-03-15T00:24:38Z,42.805,6.029,13.3027,4.60097,2470.73,2023-3-15T02:27:17Z
2023-03-15T00:27:41Z,42.805,6.029,13.3029,4.60102,2470.707,2023-3-15T02:30:20Z
2023-03-15T00:30:44Z,42.805,6.029,13.3034,4.60099,2470.693,2023-3-15T02:33:23Z
2023-03-15T00:33:47Z,42.805,6.029,13.3031,4.60102,2470.717,2023-3-15T02:36:26Z
2023-03-15T00:36:50Z,42.805,6.029,13.3029,4.60099,2470.717,2023-3-15T02:39:30Z
2023-03-15T00:39:53Z,42.805,6.029,13.3034,4.60102,2470.684,2023-3-15T02:42:33Z
2023-03-15T00:42:56Z,42.805,6.029,13.3030,4.60102,2470.717,2023-3-15T02:45:36Z
2023-03-15T00:45:59Z,42.805,6.029,13.3034,4.60102,2470.717,2023-3-15T02:48:39Z
2023-03-15T00:49:03Z,42.805,6.029,13.3030,4.60099,2470.717,2023-3-15T02:51:42Z
2023-03-15T00:52:06Z,42.805,6.029,13.3031,4.60102,2470.73,2023-3-15T02:54:45Z
2023-03-15T00:55:09Z,42.805,6.029,13.3033,4.60097,2470.693,2023-3-15T02:57:48Z
2023-03-15T00:58:12Z,42.805,6.029,13.3028,4.60097,2470.717,2023-3-15T03:00:51Z
2023-03-15T01:01:15Z,42.805,6.029,13.3035,4.60110,2470.73,2023-3-15T03:03:54Z
2023-03-15T01:04:18Z,42.805,6.029,13.3031,4.60097,2470.74,2023-3-15T03:06:57Z
2023-03-15T01:07:21Z,42.805,6.029,13.3031,4.60099,2470.717,2023-3-15T03:10:00Z
2023-03-15T01:10:24Z,42.805,6.029,13.3033,4.60099,2470.717,2023-3-15T03:13:03Z
2023-03-15T01:13:27Z,42.805,6.029,13.3025,4.60099,2470.717,2023-3-15T03:16:07Z
2023-03-15T01:16:30Z,42.805,6.029,13.3029,4.60099,2470.73,2023-3-15T03:19:10Z
2023-03-15T01:19:33Z,42.805,6.029,13.3033,4.60121,2470.703,2023-3-15T03:22:13Z
2023-03-15T01:22:36Z,42.805,6.029,13.3023,4.60093,2470.693,2023-3-15T03:25:16Z
2023-03-15T01:25:39Z,42.805,6.029,13.3040,4.60123,2470.67,2023-3-15T03:28:19Z
2023-03-15T01:28:43Z,42.805,6.029,13.3029,4.60114,2470.717,2023-3-15T03:31:22Z
2023-03-15T01:31:46Z,42.805,6.029,13.3035,4.60104,2470.693,2023-3-15T03:34:25Z
2023-03-15T01:34:49Z,42.805,6.029,13.3031,4.60094,2470.73,2023-3-15T03:37:28Z
2023-03-15T01:37:52Z,42.805,6.029,13.3035,4.60106,2470.707,2023-3-15T03:40:31Z
2023-03-15T01:40:55Z,42.805,6.029,13.3026,4.60105,2470.693,2023-3-15T03:43:34Z
2023-03-15T01:43:58Z,42.805,6.029,13.3039,4.60122,2470.693,2023-3-15T03:46:37Z
2023-03-15T01:47:01Z,42.805,6.029,13.3029,4.60099,2470.707,2023-3-15T03:49:40Z
2023-03-15T01:50:04Z,42.805,6.029,13.3035,4.60102,2470.707,2023-3-15T03:52:43Z
2023-03-15T01:53:07Z,42.805,6.029,13.3034,4.60117,2470.693,2023-3-15T03:55:47Z
2023-03-15T01:56:10Z,42.805,6.029,13.3037,4.60114,2470.693,2023-3-15T03:58:50Z
2023-03-15T01:59:13Z,42.805,6.029,13.3032,4.60114,2470.693,2023-3-15T04:01:53Z
2023-03-15T02:02:16Z,42.805,6.029,13.3033,4.60099,2470.717,2023-3-15T04:04:56Z
2023-03-15T02:05:19Z,42.805,6.029,13.3036,4.60097,2470.717,2023-3-15T04:07:59Z
2023-03-15T02:08:23Z,42.805,6.029,13.3031,4.60101,2470.707,2023-3-15T04:11:02Z
2023-03-15T02:11:26Z,42.805,6.029,13.3026,4.60106,2470.717,2023-3-15T04:14:05Z
2023-03-15T02:14:29Z,42.805,6.029,13.3029,4.60110,2470.717,2023-3-15T04:17:08Z
2023-03-15T02:17:32Z,42.805,6.029,13.3029,4.60097,2470.693,2023-3-15T04:20:11Z
2023-03-15T02:20:35Z,42.805,6.029,13.3034,4.60105,2470.693,2023-3-15T04:23:14Z
2023-03-15T02:23:38Z,42.805,6.029,13.3033,4.60099,2470.693,2023-3-15T04:26:17Z
2023-03-15T02:26:41Z,42.805,6.029,13.3026,4.60094,2470.693,2023-3-15T04:29:20Z
2023-03-15T02:29:44Z,42.805,6.029,13.3035,4.60099,2470.67,2023-3-15T04:32:23Z
2023-03-15T02:32:47Z,42.805,6.029,13.3035,4.60107,2470.67,2023-3-15T04:35:27Z
2023-03-15T02:35:50Z,42.805,6.029,13.3033,4.60131,2470.684,2023-3-15T04:38:30Z
2023-03-15T02:38:53Z,42.805,6.029,13.3026,4.60112,2470.67,2023-3-15T04:41:33Z
2023-03-15T02:41:56Z,42.805,6.029,13.3026,4.60097,2470.67,2023-3-15T04:44:36Z
2023-03-15T02:45:00Z,42.805,6.029,13.3037,4.60114,2470.693,2023-3-15T04:47:39Z
2023-03-15T02:48:03Z,42.805,6.029,13.3037,4.60131,2470.67,2023-3-15T04:50:42Z
2023-03-15T02:51:06Z,42.805,6.029,13.3025,4.60112,2470.693,2023-3-15T04:53:45Z
2023-03-15T02:54:09Z,42.805,6.029,13.3036,4.60103,2470.67,2023-3-15T04:56:48Z
2023-03-15T02:57:12Z,42.805,6.029,13.3032,4.60103,2470.693,2023-3-15T04:59:51Z
2023-03-15T03:00:15Z,42.805,6.029,13.3036,4.60112,2470.67,2023-3-15T05:02:54Z
2023-03-15T03:03:18Z,42.805,6.029,13.3031,4.60098,2470.707,2023-3-15T05:05:57Z
2023-03-15T03:06:21Z,42.805,6.029,13.3027,4.60102,2470.67,2023-3-15T05:09:01Z
2023-03-15T03:09:24Z,42.805,6.029,13.3037,4.60103,2470.73,2023-3-15T05:12:04Z
2023-03-15T03:12:27Z,42.805,6.029,13.3035,4.60108,2470.693,2023-3-15T05:15:07Z
2023-03-15T03:15:30Z,42.805,6.029,13.3031,4.60132,2470.684,2023-3-15T05:18:10Z
2023-03-15T03:18:33Z,42.805,6.029,13.3034,4.60104,2470.67,2023-3-15T05:21:13Z
2023-03-15T03:21:37Z,42.805,6.029,13.3028,4.60099,2470.707,2023-3-15T05:24:16Z
2023-03-15T03:24:40Z,42.805,6.029,13.3031,4.60108,2470.684,2023-3-15T05:27:19Z
2023-03-15T03:27:43Z,42.805,6.029,13.3036,4.60107,2470.693,2023-3-15T05:30:22Z
2023-03-15T03:30:46Z,42.805,6.029,13.3031,4.60097,2470.707,2023-3-15T05:33:25Z
2023-03-15T03:33:49Z,42.805,6.029,13.3027,4.60109,2470.67,2023-3-15T05:36:28Z
2023-03-15T03:36:52Z,42.805,6.029,13.3026,4.60102,2470.693,2023-3-15T05:39:31Z
2023-03-15T03:39:55Z,42.805,6.029,13.3031,4.60095,2470.684,2023-3-15T05:42:34Z
2023-03-15T03:42:58Z,42.805,6.029,13.3028,4.60102,2470.661,2023-3-15T05:45:37Z
2023-03-15T03:46:01Z,42.805,6.029,13.3034,4.60117,2470.67,2023-3-15T05:48:41Z
2023-03-15T03:49:04Z,42.805,6.029,13.3024,4.60122,2470.707,2023-3-15T05:51:44Z
2023-03-15T03:52:07Z,42.805,6.029,13.3036,4.60118,2470.67,2023-3-15T05:54:47Z
2023-03-15T03:55:10Z,42.805,6.029,13.3029,4.60112,2470.707,2023-3-15T05:57:50Z
2023-03-15T03:58:13Z,42.805,6.029,13.3028,4.60104,2470.707,2023-3-15T06:00:53Z
2023-03-15T04:01:17Z,42.805,6.029,13.3028,4.60089,2470.684,2023-3-15T06:03:56Z
2023-03-15T04:04:20Z,42.805,6.029,13.3029,4.60110,2470.637,2023-3-15T06:06:59Z
2023-03-15T04:07:23Z,42.805,6.029,13.3029,4.60115,2470.67,2023-3-15T06:10:02Z
2023-03-15T04:10:26Z,42.805,6.029,13.3031,4.60111,2470.67,2023-3-15T06:13:05Z
2023-03-15T04:13:29Z,42.805,6.029,13.3029,4.60104,2470.684,2023-3-15T06:16:08Z
2023-03-15T04:16:32Z,42.805,6.029,13.3031,4.60101,2470.693,2023-3-15T06:19:11Z
2023-03-15T04:19:35Z,42.805,6.029,13.3028,4.60102,2470.67,2023-3-15T06:22:14Z
2023-03-15T04:22:38Z,42.805,6.029,13.3030,4.60121,2470.646,2023-3-15T06:25:18Z
2023-03-15T04:25:41Z,42.805,6.029,13.3031,4.60111,2470.661,2023-3-15T06:28:21Z
2023-03-15T04:28:44Z,42.805,6.029,13.3033,4.60107,2470.67,2023-3-15T06:31:24Z
2023-03-15T04:31:47Z,42.805,6.029,13.3029,4.60104,2470.693,2023-3-15T06:34:27Z
2023-03-15T04:34:50Z,42.805,6.029,13.3030,4.60106,2470.661,2023-3-15T06:37:30Z
2023-03-15T04:37:54Z,42.805,6.029,13.3034,4.60116,2470.684,2023-3-15T06:40:33Z
2023-03-15T04:40:57Z,42.805,6.029,13.3038,4.60116,2470.646,2023-3-15T06:43:36Z
2023-03-15T04:44:00Z,42.805,6.029,13.3029,4.60095,2470.684,2023-3-15T06:46:39Z
2023-03-15T04:47:03Z,42.805,6.029,13.3032,4.60128,2470.661,2023-3-15T06:49:42Z
2023-03-15T04:50:06Z,42.805,6.029,13.3029,4.60125,2470.661,2023-3-15T06:52:45Z
2023-03-15T04:53:09Z,42.805,6.029,13.3031,4.60108,2470.684,2023-3-15T06:55:48Z
2023-03-15T04:56:12Z,42.805,6.029,13.3029,4.60098,2470.646,2023-3-15T06:58:51Z
2023-03-15T04:59:15Z,42.805,6.029,13.3028,4.60103,2470.661,2023-3-15T07:01:55Z
2023-03-15T05:02:18Z,42.805,6.029,13.3033,4.60099,2470.67,2023-3-15T07:04:58Z
2023-03-15T05:05:21Z,42.805,6.029,13.3028,4.60105,2470.707,2023-3-15T07:08:01Z
2023-03-15T05:08:24Z,42.805,6.029,13.3025,4.60091,2470.684,2023-3-15T07:11:04Z
2023-03-15T05:11:27Z,42.805,6.029,13.3024,4.60092,2470.661,2023-3-15T07:14:07Z
2023-03-15T05:14:30Z,42.805,6.029,13.3029,4.60097,2470.646,2023-3-15T07:17:10Z
2023-03-15T05:17:34Z,42.805,6.029,13.3031,4.60098,2470.646,2023-3-15T07:20:13Z
2023-03-15T05:20:37Z,42.805,6.029,13.3029,4.60103,2470.67,2023-3-15T07:23:16Z
2023-03-15T05:23:40Z,42.805,6.029,13.3029,4.60104,2470.637,2023-3-15T07:26:19Z
2023-03-15T05:26:43Z,42.805,6.029,13.3035,4.60098,2470.67,2023-3-15T07:29:22Z
2023-03-15T05:29:46Z,42.805,6.029,13.3031,4.60101,2470.646,2023-3-15T07:32:25Z
2023-03-15T05:32:49Z,42.805,6.029,13.3027,4.60103,2470.684,2023-3-15T07:35:28Z
2023-03-15T05:35:52Z,42.805,6.029,13.3029,4.60091,2470.646,2023-3-15T07:38:32Z
2023-03-15T05:38:55Z,42.805,6.029,13.3031,4.60108,2470.637,2023-3-15T07:41:35Z
2023-03-15T05:41:58Z,42.805,6.029,13.3033,4.60096,2470.624,2023-3-15T07:44:38Z
2023-03-15T05:45:01Z,42.805,6.029,13.3029,4.60105,2470.646,2023-3-15T07:47:41Z
2023-03-15T05:48:04Z,42.805,6.029,13.3030,4.60106,2470.624,2023-3-15T07:50:44Z
2023-03-15T05:51:07Z,42.805,6.029,13.3031,4.60097,2470.661,2023-3-15T07:53:47Z
2023-03-15T05:54:11Z,42.805,6.029,13.3027,4.60087,2470.624,2023-3-15T07:56:50Z
2023-03-15T05:57:14Z,42.805,6.029,13.3026,4.60089,2470.646,2023-3-15T07:59:53Z
2023-03-15T06:00:17Z,42.805,6.029,13.3026,4.60091,2470.624,2023-3-15T08:02:56Z
2023-03-15T06:03:20Z,42.805,6.029,13.3026,4.60090,2470.661,2023-3-15T08:05:59Z
2023-03-15T06:06:23Z,42.805,6.029,13.3029,4.60094,2470.614,2023-3-15T08:09:02Z
2023-03-15T06:09:26Z,42.805,6.029,13.3027,4.60103,2470.637,2023-3-15T08:12:05Z
2023-03-15T06:12:29Z,42.805,6.029,13.3024,4.60090,2470.586,2023-3-15T08:15:08Z
2023-03-15T06:15:32Z,42.805,6.029,13.3024,4.60104,2470.6,2023-3-15T08:18:12Z
2023-03-15T06:18:35Z,42.805,6.029,13.3031,4.60098,2470.624,2023-3-15T08:21:15Z
2023-03-15T06:21:38Z,42.805,6.029,13.3025,4.60097,2470.61,2023-3-15T08:24:18Z
2023-03-15T06:24:41Z,42.805,6.029,13.3024,4.60094,2470.624,2023-3-15T08:27:21Z
2023-03-15T06:27:44Z,42.805,6.029,13.3026,4.60099,2470.624,2023-3-15T08:30:24Z
2023-03-15T06:30:47Z,42.805,6.029,13.3023,4.60099,2470.633,2023-3-15T08:33:27Z
2023-03-15T06:33:51Z,42.805,6.029,13.3026,4.60099,2470.624,2023-3-15T08:36:30Z
2023-03-15T06:36:54Z,42.805,6.029,13.3022,4.60089,2470.624,2023-3-15T08:39:33Z
2023-03-15T06:39:57Z,42.805,6.029,13.3026,4.60101,2470.646,2023-3-15T08:42:36Z
2023-03-15T06:43:00Z,42.805,6.029,13.3023,4.60099,2470.637,2023-3-15T08:45:39Z
2023-03-15T06:46:03Z,42.805,6.029,13.3026,4.60099,2470.637,2023-3-15T08:48:42Z
2023-03-15T06:49:06Z,42.805,6.029,13.3025,4.60087,2470.661,2023-3-15T08:51:45Z
2023-03-15T06:52:09Z,42.805,6.029,13.3026,4.60094,2470.637,2023-3-15T08:54:49Z
2023-03-15T06:55:12Z,42.805,6.029,13.3032,4.60101,2470.6,2023-3-15T08:57:52Z
2023-03-15T06:58:15Z,42.805,6.029,13.3025,4.60088,2470.624,2023-3-15T09:00:55Z
2023-03-15T07:01:18Z,42.805,6.029,13.3029,4.60096,2470.624,2023-3-15T09:03:58Z
2023-03-15T07:04:21Z,42.805,6.029,13.3025,4.60102,2470.624,2023-3-15T09:07:01Z
2023-03-15T07:07:24Z,42.805,6.029,13.3032,4.60104,2470.646,2023-3-15T09:10:04Z
2023-03-15T07:10:28Z,42.805,6.029,13.3026,4.60094,2470.624,2023-3-15T09:13:07Z
2023-03-15T07:13:31Z,42.805,6.029,13.3029,4.60107,2470.6,2023-3-15T09:16:10Z
2023-03-15T07:16:34Z,42.805,6.029,13.3030,4.60094,2470.637,2023-3-15T09:19:13Z
2023-03-15T07:19:37Z,42.805,6.029,13.3034,4.60113,2470.646,2023-3-15T09:22:16Z
2023-03-15T07:22:40Z,42.805,6.029,13.3024,4.60102,2470.624,2023-3-15T09:25:19Z
2023-03-15T07:25:43Z,42.805,6.029,13.3029,4.60101,2470.661,2023-3-15T09:28:22Z
2023-03-15T07:28:46Z,42.805,6.029,13.3027,4.60092,2470.624,2023-3-15T09:31:25Z
2023-03-15T07:31:49Z,42.805,6.029,13.3031,4.60103,2470.624,2023-3-15T09:34:29Z
2023-03-15T07:34:52Z,42.805,6.029,13.3022,4.60097,2470.637,2023-3-15T09:37:32Z
2023-03-15T07:37:55Z,42.805,6.029,13.3030,4.60099,2470.624,2023-3-15T09:40:35Z
2023-03-15T07:40:58Z,42.805,6.029,13.3029,4.60101,2470.624,2023-3-15T09:43:38Z
2023-03-15T07:44:01Z,42.805,6.029,13.3026,4.60103,2470.637,2023-3-15T09:46:41Z
2023-03-15T07:47:04Z,42.805,6.029,13.3028,4.60099,2470.624,2023-3-15T09:49:44Z
2023-03-15T07:50:08Z,42.805,6.029,13.3029,4.60105,2470.624,2023-3-15T09:52:47Z
2023-03-15T07:53:11Z,42.805,6.029,13.3031,4.60103,2470.637,2023-3-15T09:55:50Z
2023-03-15T07:56:14Z,42.805,6.029,13.3026,4.60096,2470.646,2023-3-15T09:58:53Z
2023-03-15T07:59:17Z,42.805,6.029,13.3028,4.60099,2470.624,2023-3-15T10:01:56Z
2023-03-15T08:02:20Z,42.805,6.029,13.3019,4.60097,2470.656,2023-3-15T10:04:59Z
2023-03-15T08:05:23Z,42.805,6.029,13.3031,4.60099,2470.637,2023-3-15T10:08:03Z
2023-03-15T08:08:26Z,42.805,6.029,13.3024,4.60099,2470.61,2023-3-15T10:11:06Z
2023-03-15T08:11:29Z,42.805,6.029,13.3029,4.60104,2470.624,2023-3-15T10:14:09Z
2023-03-15T08:14:32Z,42.805,6.029,13.3035,4.60104,2470.624,2023-3-15T10:17:12Z
2023-03-15T08:17:35Z,42.805,6.029,13.3027,4.60095,2470.614,2023-3-15T10:20:15Z
2023-03-15T08:20:38Z,42.805,6.029,13.3031,4.60098,2470.646,2023-3-15T10:23:18Z
2023-03-15T08:23:41Z,42.805,6.029,13.3033,4.60107,2470.614,2023-3-15T10:26:21Z
2023-03-15T08:26:45Z,42.805,6.029,13.3026,4.60097,2470.624,2023-3-15T10:29:24Z
2023-03-15T08:29:48Z,42.805,6.029,13.3029,4.60107,2470.646,2023-3-15T10:32:27Z
2023-03-15T08:32:51Z,42.805,6.029,13.3031,4.60109,2470.624,2023-3-15T10:35:30Z
2023-03-15T08:35:54Z,42.805,6.029,13.3032,4.60109,2470.646,2023-3-15T10:38:33Z
2023-03-15T08:38:57Z,42.805,6.029,13.3033,4.60109,2470.637,2023-3-15T10:41:36Z
2023-03-15T08:42:00Z,42.805,6.029,13.3030,4.60097,2470.6,2023-3-15T10:44:40Z
2023-03-15T08:45:03Z,42.805,6.029,13.3034,4.60115,2470.624,2023-3-15T10:47:43Z
2023-03-15T08:48:06Z,42.805,6.029,13.3025,4.60102,2470.624,2023-3-15T10:50:46Z
2023-03-15T08:51:09Z,42.805,6.029,13.3029,4.60102,2470.6,2023-3-15T10:53:49Z
2023-03-15T08:54:12Z,42.805,6.029,13.3034,4.60105,2470.624,2023-3-15T10:56:52Z
2023-03-15T08:57:15Z,42.805,6.029,13.3024,4.60102,2470.637,2023-3-15T10:59:55Z
2023-03-15T09:00:19Z,42.805,6.029,13.3030,4.60096,2470.624,2023-3-15T11:02:58Z
2023-03-15T09:03:22Z,42.805,6.029,13.3034,4.60096,2470.637,2023-3-15T11:06:01Z
2023-03-15T09:06:25Z,42.805,6.029,13.3026,4.60098,2470.67,2023-3-15T11:09:04Z
2023-03-15T09:09:28Z,42.805,6.029,13.3027,4.60092,2470.6,2023-3-15T11:12:07Z
2023-03-15T09:12:31Z,42.805,6.029,13.3025,4.60094,2470.67,2023-3-15T11:15:10Z
2023-03-15T09:15:34Z,42.805,6.029,13.3032,4.60097,2470.646,2023-3-15T11:18:13Z
2023-03-15T09:18:37Z,42.805,6.029,13.3026,4.60093,2470.624,2023-3-15T11:21:17Z
2023-03-15T09:21:40Z,42.805,6.029,13.3026,4.60097,2470.646,2023-3-15T11:24:20Z
2023-03-15T09:24:43Z,42.805,6.029,13.3029,4.60094,2470.614,2023-3-15T11:27:23Z
2023-03-15T09:27:46Z,42.805,6.029,13.3030,4.60092,2470.661,2023-3-15T11:30:26Z
2023-03-15T09:30:49Z,42.805,6.029,13.3027,4.60098,2470.661,2023-3-15T11:33:29Z
2023-03-15T09:33:52Z,42.805,6.029,13.3029,4.60097,2470.661,2023-3-15T11:36:32Z
2023-03-15T09:36:56Z,42.805,6.029,13.3023,4.60099,2470.646,2023-3-15T11:39:35Z
2023-03-15T09:39:59Z,42.805,6.029,13.3031,4.60100,2470.646,2023-3-15T11:42:38Z
2023-03-15T09:43:02Z,42.805,6.029,13.3023,4.60097,2470.646,2023-3-15T11:45:41Z
2023-03-15T09:46:05Z,42.805,6.029,13.3026,4.60087,2470.646,2023-3-15T11:48:44Z
2023-03-15T09:49:08Z,42.805,6.029,13.3028,4.60096,2470.661,2023-3-15T11:51:47Z
2023-03-15T09:52:11Z,42.805,6.029,13.3029,4.60087,2470.67,2023-3-15T11:54:51Z
2023-03-15T09:55:14Z,42.805,6.029,13.3027,4.60101,2470.661,2023-3-15T11:57:54Z
2023-03-15T09:58:17Z,42.805,6.029,13.3028,4.60094,2470.661,2023-3-15T12:00:57Z
2023-03-15T10:01:20Z,42.805,6.029,13.3027,4.60097,2470.646,2023-3-15T12:04:00Z
2023-03-15T10:04:23Z,42.805,6.029,13.3029,4.60097,2470.67,2023-3-15T12:07:03Z
2023-03-15T10:07:26Z,42.805,6.029,13.3028,4.60093,2470.67,2023-3-15T12:10:06Z
2023-03-15T10:10:29Z,42.805,6.029,13.3024,4.60095,2470.646,2023-3-15T12:13:09Z
2023-03-15T10:13:33Z,42.805,6.029,13.3027,4.60096,2470.67,2023-3-15T12:16:12Z
2023-03-15T10:16:36Z,42.805,6.029,13.3027,4.60089,2470.67,2023-3-15T12:19:15Z
2023-03-15T10:19:39Z,42.805,6.029,13.3027,4.60089,2470.693,2023-3-15T12:22:18Z
2023-03-15T10:22:42Z,42.805,6.029,13.3024,4.60092,2470.633,2023-3-15T12:25:21Z
2023-03-15T10:25:45Z,42.805,6.029,13.3024,4.60087,2470.684,2023-3-15T12:28:24Z
2023-03-15T10:28:48Z,42.805,6.029,13.3024,4.60097,2470.661,2023-3-15T12:31:28Z
2023-03-15T10:31:51Z,42.805,6.029,13.3027,4.60086,2470.656,2023-3-15T12:34:31Z
2023-03-15T10:34:54Z,42.805,6.029,13.3026,4.60093,2470.67,2023-3-15T12:37:34Z
2023-03-15T10:37:57Z,42.805,6.029,13.3029,4.60090,2470.67,2023-3-15T12:40:37Z
2023-03-15T10:41:00Z,42.805,6.029,13.3030,4.60102,2470.684,2023-3-15T12:43:40Z
2023-03-15T10:44:03Z,42.805,6.029,13.3029,4.60088,2470.67,2023-3-15T12:46:43Z
2023-03-15T10:47:07Z,42.805,6.029,13.3029,4.60092,2470.67,2023-3-15T12:49:46Z
2023-03-15T10:50:10Z,42.805,6.029,13.3022,4.60092,2470.67,2023-3-15T12:52:49Z
2023-03-15T10:53:13Z,42.805,6.029,13.3025,4.60089,2470.67,2023-3-15T12:55:52Z
2023-03-15T10:56:16Z,42.805,6.029,13.3024,4.60087,2470.637,2023-3-15T12:58:55Z
2023-03-15T10:59:19Z,42.805,6.029,13.3026,4.60090,2470.684,2023-3-15T13:01:58Z
2023-03-15T11:02:22Z,42.805,6.029,13.3026,4.60094,2470.67,2023-3-15T13:05:01Z
2023-03-15T11:05:25Z,42.805,6.029,13.3026,4.60091,2470.67,2023-3-15T13:08:05Z
2023-03-15T11:08:28Z,42.805,6.029,13.3026,4.60091,2470.661,2023-3-15T13:11:08Z
2023-03-15T11:11:31Z,42.805,6.029,13.3024,4.60083,2470.661,2023-3-15T13:14:11Z
2023-03-15T11:14:34Z,42.805,6.029,13.3024,4.60087,2470.646,2023-3-15T13:17:14Z
2023-03-15T11:17:37Z,42.805,6.029,13.3028,4.60081,2470.67,2023-3-15T13:20:17Z
2023-03-15T11:20:40Z,42.805,6.029,13.3026,4.60082,2470.693,2023-3-15T13:23:20Z
2023-03-15T11:23:44Z,42.805,6.029,13.3028,4.60087,2470.67,2023-3-15T13:26:23Z
2023-03-15T11:26:47Z,42.805,6.029,13.3022,4.60085,2470.67,2023-3-15T13:29:26Z
2023-03-15T11:29:50Z,42.805,6.029,13.3026,4.60094,2470.646,2023-3-15T13:32:29Z
2023-03-15T11:32:53Z,42.805,6.029,13.3024,4.60084,2470.661,2023-3-15T13:35:32Z
2023-03-15T11:35:56Z,42.805,6.029,13.3024,4.60087,2470.693,2023-3-15T13:38:35Z
2023-03-15T11:38:59Z,42.805,6.029,13.3021,4.60093,2470.67,2023-3-15T13:41:39Z
2023-03-15T11:42:02Z,42.805,6.029,13.3025,4.60092,2470.646,2023-3-15T13:44:42Z
2023-03-15T11:45:05Z,42.805,6.029,13.3021,4.60089,2470.67,2023-3-15T13:47:45Z
2023-03-15T11:48:08Z,42.805,6.029,13.3026,4.60094,2470.656,2023-3-15T13:50:48Z
2023-03-15T11:51:11Z,42.805,6.029,13.3024,4.60086,2470.646,2023-3-15T13:53:51Z
2023-03-15T11:54:14Z,42.805,6.029,13.3022,4.60089,2470.67,2023-3-15T13:56:54Z
2023-03-15T11:57:17Z,42.805,6.029,13.3023,4.60084,2470.656,2023-3-15T13:59:57Z
2023-03-15T12:00:21Z,42.805,6.029,13.3032,4.60092,2470.67,2023-3-15T14:03:00Z
2023-03-15T12:03:24Z,42.805,6.029,13.3026,4.60084,2470.67,2023-3-15T14:06:03Z
2023-03-15T12:06:27Z,42.805,6.029,13.3024,4.60087,2470.646,2023-3-15T14:09:06Z
2023-03-15T12:09:30Z,42.805,6.029,13.3032,4.60094,2470.624,2023-3-15T14:12:09Z
2023-03-15T12:12:33Z,42.805,6.029,13.3023,4.60081,2470.646,2023-3-15T14:15:12Z
2023-03-15T12:15:36Z,42.805,6.029,13.3021,4.60082,2470.661,2023-3-15T14:18:16Z
2023-03-15T12:18:39Z,42.805,6.029,13.3025,4.60096,2470.646,2023-3-15T14:21:19Z
2023-03-15T12:21:42Z,42.805,6.029,13.3021,4.60084,2470.693,2023-3-15T14:24:22Z
2023-03-15T12:24:45Z,42.805,6.029,13.3022,4.60088,2470.67,2023-3-15T14:27:25Z
2023-03-15T12:27:48Z,42.805,6.029,13.3021,4.60086,2470.661,2023-3-15T14:30:28Z
2023-03-15T12:30:51Z,42.805,6.029,13.3024,4.60085,2470.67,2023-3-15T14:33:31Z
2023-03-15T12:33:54Z,42.805,6.029,13.3026,4.60104,2470.646,2023-3-15T14:36:34Z
2023-03-15T12:36:58Z,42.805,6.029,13.3023,4.60094,2470.646,2023-3-15T14:39:37Z
2023-03-15T12:40:01Z,42.805,6.029,13.3026,4.60087,2470.646,2023-3-15T14:42:40Z
2023-03-15T12:43:04Z,42.805,6.029,13.3020,4.60084,2470.67,2023-3-15T14:45:43Z
2023-03-15T12:46:07Z,42.805,6.029,13.3021,4.60085,2470.646,2023-3-15T14:48:46Z
2023-03-15T12:49:10Z,42.805,6.029,13.3021,4.60084,2470.624,2023-3-15T14:51:50Z
2023-03-15T12:52:13Z,42.805,6.029,13.3024,4.60092,2470.67,2023-3-15T14:54:53Z
2023-03-15T12:55:16Z,42.805,6.029,13.3019,4.60088,2470.646,2023-3-15T14:57:56Z
2023-03-15T12:58:19Z,42.805,6.029,13.3026,4.60086,2470.646,2023-3-15T15:00:59Z
2023-03-15T13:01:22Z,42.805,6.029,13.3021,4.60092,2470.707,2023-3-15T15:04:02Z
2023-03-15T13:04:25Z,42.805,6.029,13.3027,4.60084,2470.661,2023-3-15T15:07:05Z
2023-03-15T13:07:28Z,42.805,6.029,13.3022,4.60093,2470.661,2023-3-15T15:10:08Z
2023-03-15T13:10:31Z,42.805,6.029,13.3027,4.60093,2470.624,2023-3-15T15:13:11Z
2023-03-15T13:13:35Z,42.805,6.029,13.3021,4.60085,2470.646,2023-3-15T15:16:14Z
2023-03-15T13:16:38Z,42.805,6.029,13.3028,4.60089,2470.684,2023-3-15T15:19:17Z
2023-03-15T13:19:41Z,42.805,6.029,13.3024,4.60089,2470.661,2023-3-15T15:22:20Z
2023-03-15T13:22:44Z,42.805,6.029,13.3023,4.60081,2470.624,2023-3-15T15:25:23Z
2023-03-15T13:25:47Z,42.805,6.029,13.3021,4.60087,2470.646,2023-3-15T15:28:27Z
2023-03-15T13:28:50Z,42.805,6.029,13.3024,4.60084,2470.684,2023-3-15T15:31:30Z
2023-03-15T13:31:53Z,42.805,6.029,13.3021,4.60083,2470.661,2023-3-15T15:34:33Z
2023-03-15T13:34:56Z,42.805,6.029,13.3026,4.60089,2470.624,2023-3-15T15:37:36Z
2023-03-15T13:37:59Z,42.805,6.029,13.3024,4.60094,2470.646,2023-3-15T15:40:39Z
2023-03-15T13:41:02Z,42.805,6.029,13.3027,4.60088,2470.637,2023-3-15T15:43:42Z
2023-03-15T13:44:05Z,42.805,6.029,13.3026,4.60096,2470.624,2023-3-15T15:46:45Z
2023-03-15T13:47:09Z,42.805,6.029,13.3019,4.60084,2470.624,2023-3-15T15:49:48Z
2023-03-15T13:50:12Z,42.805,6.029,13.3027,4.60085,2470.646,2023-3-15T15:52:51Z
2023-03-15T13:53:15Z,42.805,6.029,13.3025,4.60107,2470.624,2023-3-15T15:55:54Z
2023-03-15T13:56:18Z,42.805,6.029,13.3023,4.60097,2470.624,2023-3-15T15:58:57Z
2023-03-15T13:59:21Z,42.805,6.029,13.3027,4.60097,2470.6,2023-3-15T16:02:00Z
2023-03-15T14:02:24Z,42.805,6.029,13.3028,4.60087,2470.646,2023-3-15T16:05:04Z
2023-03-15T14:05:27Z,42.805,6.029,13.3026,4.60097,2470.637,2023-3-15T16:08:07Z
2023-03-15T14:08:30Z,42.805,6.029,13.3027,4.60099,2470.624,2023-3-15T16:11:10Z
2023-03-15T14:11:33Z,42.805,6.029,13.3025,4.60089,2470.637,2023-3-15T16:14:13Z
2023-03-15T14:14:36Z,42.805,6.029,13.3024,4.60089,2470.624,2023-3-15T16:17:16Z
2023-03-15T14:17:39Z,42.805,6.029,13.3024,4.60097,2470.637,2023-3-15T16:20:19Z
2023-03-15T14:20:42Z,42.805,6.029,13.3023,4.60090,2470.624,2023-3-15T16:23:22Z
2023-03-15T14:23:45Z,42.805,6.029,13.3024,4.60092,2470.637,2023-3-15T16:26:25Z
2023-03-15T14:26:49Z,42.805,6.029,13.3024,4.60087,2470.624,2023-3-15T16:29:28Z
2023-03-15T14:29:52Z,42.805,6.029,13.3020,4.60092,2470.624,2023-3-15T16:32:31Z
2023-03-15T14:32:55Z,42.805,6.029,13.3024,4.60086,2470.624,2023-3-15T16:35:34Z
2023-03-15T14:35:58Z,42.805,6.029,13.3029,4.60095,2470.6,2023-3-15T16:38:38Z
2023-03-15T14:39:01Z,42.805,6.029,13.3024,4.60099,2470.624,2023-3-15T16:41:41Z
2023-03-15T14:42:04Z,42.805,6.029,13.3029,4.60090,2470.624,2023-3-15T16:44:44Z
2023-03-15T14:45:07Z,42.805,6.029,13.3029,4.60088,2470.661,2023-3-15T16:47:47Z
2023-03-15T14:48:10Z,42.805,6.029,13.3026,4.60104,2470.661,2023-3-15T16:50:50Z
2023-03-15T14:51:13Z,42.805,6.029,13.3026,4.60103,2470.661,2023-3-15T16:53:53Z
2023-03-15T14:54:16Z,42.805,6.029,13.3024,4.60088,2470.624,2023-3-15T16:56:56Z
2023-03-15T14:57:19Z,42.805,6.029,13.3026,4.60104,2470.661,2023-3-15T16:59:59Z
2023-03-15T15:00:23Z,42.805,6.029,13.3029,4.60093,2470.661,2023-3-15T17:03:02Z
2023-03-15T15:03:26Z,42.805,6.029,13.3029,4.60099,2470.624,2023-3-15T17:06:05Z
2023-03-15T15:06:29Z,42.805,6.029,13.3028,4.60094,2470.624,2023-3-15T17:09:08Z
2023-03-15T15:09:32Z,42.805,6.029,13.3027,4.60092,2470.624,2023-3-15T17:12:11Z